Hourly Data Report for October 04, 2017

All times are specified in Local Standard Time (LST). Add 1 hour to adjust for Daylight Saving Time where and when it is observed.

KUGLUKTUK A
NUNAVUT

67°49'00.000" N
115°08'38.000" W
22.60 m
2300903
71938
YCO

Download Data

Hourly Data (October 2017)
Hourly Data Report for October 4, 2017
Temp Definition
°C
Dew Point Temp Definition
°C
Rel Hum Definition
%
Wind Dir Definition
10's deg

Wind Spd Definition
km/h
Visibility Definition
km
Stn Press Definition
kPa
Hmdx Definition


Wind Chill Definition


Weather Definition


TIME
00:00 Legend Double Dagger -2.5 -5.5 80 29 20 19.3 101.94   -8 Snow Grains
01:00 Legend Double Dagger -2.7 -5.7 80 29 21 19.3 101.96   -9 Snow Grains
02:00 Legend Double Dagger -2.8 -5.7 81 28 24 19.3 102.00   -9 Snow Grains
03:00 Legend Double Dagger -2.9 -5.6 82 28 21 19.3 102.02   -9 Snow Grains
04:00 Legend Double Dagger -2.9 -6.0 79 29 23 19.3 102.03   -9 Snow Grains
05:00 Legend Double Dagger -2.8 -5.7 81 29 20 19.3 102.04   -9 Snow Grains
06:00 Legend Double Dagger -2.7 -5.3 82 29 14 19.3 102.05   -8 Snow Grains
07:00 Legend Double Dagger -2.6 -5.5 81 31 27 19.3 102.04   -10 Snow Grains
08:00 Legend Double Dagger -2.6 -5.6 80 29 22 24.1 102.02   -9 Freezing Drizzle
09:00 Legend Double Dagger -2.4 -5.5 79 27 21 24.1 102.00   -8 Freezing Drizzle
10:00 Legend Double Dagger -2.0 -4.8 81 28 17 24.1 102.02   -7 Freezing Drizzle
11:00 Legend Double Dagger -1.4 -5.1 76 29 20 24.1 102.02   -7 Freezing Drizzle
12:00 Legend Double Dagger -1.0 -4.7 76 31 20 19.3 102.04   -7 Freezing Drizzle
13:00 Legend Double Dagger -1.0 -4.8 76 32 22 24.1 102.03   -7 LegendNANA
14:00 Legend Double Dagger -1.0 -4.7 76 32 26 24.1 102.01   -7 Snow Grains
15:00 Legend Double Dagger -1.2 -4.9 76 32 28 24.1 102.00   -8 LegendNANA
16:00 Legend Double Dagger -1.4 -5.2 75 30 18 24.1 102.00   -7 LegendNANA
17:00 Legend Double Dagger -1.6 -4.7 80 33 17 24.1 102.01   -7 Cloudy
18:00 Legend Double Dagger -2.0 -5.1 80 30 21 24.1 102.00   -8 LegendNANA
19:00 Legend Double Dagger -2.3 -5.5 79 34 21 24.1 101.97   -8 LegendNANA
20:00 Legend Double Dagger -2.8 -5.9 79 31 17 24.1 101.95   -8 Snow Grains
21:00 Legend Double Dagger -3.1 -5.8 81 28 15 24.1 101.93   -8 Snow Grains
22:00 Legend Double Dagger -3.3 -5.8 83 28 13 24.1 101.87   -8 LegendNANA
23:00 Legend Double Dagger LegendMM LegendMM LegendMM 0 LegendMM 24.1 LegendMM     Cloudy

Notes on Data Quality.

Legend

  • E = Estimated
  • M = Missing
  • NA = Not Available
  • ‡ = Partner data that is not subject to review by the National Climate Archives
Date modified: